Theta_e
324 334 336 336 342 343 343 342 342 343 344 338 337 336 328 326 335 336 318 309 309 310 312 317 322 323 324 324 325 327 329 331 334 337 339 341 340 340 343 343 342 339 338 341 342 341 343 341 340
329 333 332 335 339 343 344 342 345 339 340 334 330 329 326 323 319 315 313 307 307 307 311 316 317 318 319 319 320 320 321 322 323 327 331 336 338 340 340 339 339 340 341 342 340 340 340 342 342
331 331 328 340 334 340 342 336 338 330 326 334 327 318 317 315 314 313 307 307 307 306 307 312 314 315 315 317 317 317 317 317 317 318 320 325 331 334 336 337 339 338 338 339 339 338 339 338 337
331 330 328 333 333 328 326 324 324 326 323 329 322 318 312 310 312 308 307 307 306 305 305 308 311 312 313 313 315 316 316 316 316 316 315 316 318 322 327 331 335 336 337 338 338 338 339 339 339
330 328 333 330 327 324 322 321 321 317 321 322 320 316 314 309 307 307 307 306 305 305 305 305 308 309 310 311 311 313 314 315 315 314 315 314 314 314 316 320 324 329 332 334 335 338 338 340 340
330 327 330 330 327 325 320 318 317 318 313 318 317 314 312 308 308 308 308 306 305 304 304 304 304 306 307 307 308 309 310 311 312 313 313 313 314 312 311 313 315 315 319 322 326 328 332 334 335
335 332 331 327 325 323 320 318 316 310 311 310 315 314 310 309 309 308 307 304 303 303 303 303 302 302 302 302 305 307 308 308 309 310 310 311 311 311 311 311 310 308 311 315 316 318 320 323 326
330 332 329 324 326 322 317 314 310 308 306 307 307 306 305 304 303 303 302 301 300 300 300 301 300 301 300 301 302 305 305 306 309 308 307 308 309 307 306 309 307 310 312 312 313 314 314 312 311
330 323 322 324 324 318 312 311 307 306 304 303 303 301 302 302 302 301 300 300 300 299 299 298 298 298 298 298 299 299 300 302 302 302 303 306 306 306 307 307 309 310 312 312 312 313 312 312 312
322 321 323 320 316 308 306 309 308 304 303 302 301 301 302 301 300 300 299 299 299 299 299 299 298 298 298 298 298 298 298 298 299 299 300 301 302 305 308 307 306 310 310 311 311 312 311 309 308
319 321 319 315 310 309 306 304 304 304 302 301 301 300 300 300 300 300 299 299 299 299 299 299 299 299 299 298 298 298 298 298 298 299 299 299 298 300 303 306 305 307 307 307 307 307 307 307 307
317 315 316 310 312 310 306 305 303 302 301 301 301 300 299 298 298 298 298 298 298 298 298 298 298 299 299 298 298 298 298 298 298 298 298 299 299 300 300 302 304 306 306 306 306 306 306 306 306
314 312 310 308 306 305 304 303 302 302 301 301 300 299 298 298 299 298 298 298 298 298 298 298 298 298 298 298 298 298 298 298 298 298 299 299 298 299 300 300 302 304 306 305 307 306 306 306 305
315 314 310 310 307 305 304 303 303 302 300 298 298 297 297 297 297 298 298 298 298 298 297 297 297 296 297 297 297 297 297 297 297 299 297 297 298 299 299 300 301 301 304 303 304 306 305 305 305
313 313 311 307 307 304 303 302 301 300 298 298 296 295 295 296 297 297 298 298 297 297 297 296 296 296 297 297 297 297 297 297 297 297 297 298 299 299 299 299 299 301 301 303 303 302 305 305 305
313 312 312 309 308 305 305 302 301 299 298 297 295 293 293 295 296 298 298 298 297 296 296 296 296 296 296 297 297 297 297 298 298 297 298 297 297 299 299 299 299 299 301 302 301 301 303 305 304
308 310 311 311 309 307 305 301 300 299 297 297 294 292 293 293 296 297 297 297 296 296 296 296 296 296 296 296 296 297 297 297 297 298 298 298 297 297 297 297 298 298 300 301 301 301 300 302 303
308 309 309 310 306 303 301 300 300 298 298 295 293 291 292 293 294 297 297 297 296 296 296 296 296 296 296 296 296 297 297 297 297 297 297 297 298 298 298 297 298 298 298 299 301 301 301 300 300
307 309 307 305 307 305 302 301 300 299 297 294 292 292 292 293 296 297 297 296 296 295 295 295 296 296 296 296 296 296 296 297 297 297 297 297 297 297 298 298 297 297 297 297 298 301 301 301 301
307 306 305 305 307 303 302 301 301 301 297 293 293 292 292 295 295 296 297 296 295 295 296 296 296 296 296 296 297 297 296 296 296 296 296 297 297 298 298 298 298 297 297 298 299 299 301 301 300
307 305 304 304 305 304 302 302 302 300 294 294 293 292 294 295 295 296 296 295 295 296 296 296 296 296 295 296 296 296 296 296 296 296 296 296 297 297 297 298 298 298 298 298 297 297 300 299 300
305 306 305 305 305 308 304 304 297 294 292 292 291 293 294 294 296 296 295 295 296 297 296 296 296 295 295 295 296 296 296 296 296 296 296 296 296 296 297 298 298 298 297 298 297 297 298 299 300
305 304 303 304 304 305 306 298 295 293 293 293 292 293 294 295 296 295 295 296 296 296 296 296 295 296 296 296 296 296 296 296 296 296 296 296 296 296 296 297 298 298 297 298 297 297 297 297 298
302 301 308 308 307 302 302 298 295 291 293 293 293 294 294 295 295 295 295 296 296 296 295 296 296 296 295 295 295 295 295 295 295 296 296 296 295 296 296 296 297 298 297 297 297 298 297 297 298
299 299 302 304 304 302 301 298 295 293 293 293 293 293 294 295 294 294 295 296 296 296 296 296 296 295 295 295 295 295 295 295 296 296 296 296 295 295 296 296 297 298 298 298 298 298 297 297 297
300 297 298 301 302 300 300 299 293 294 293 294 294 294 295 295 294 295 296 296 296 296 296 296 295 295 295 296 296 297 297 297 297 297 298 297 297 296 295 296 296 297 298 298 298 298 298 298 297
298 296 298 299 299 298 297 295 295 294 293 293 293 294 295 294 294 295 296 295 296 296 295 295 295 296 296 296 297 298 298 297 296 296 296 297 297 298 296 295 296 296 296 298 298 298 298 298 298
297 297 296 295 295 297 296 293 292 292 293 293 293 293 295 293 294 294 295 295 295 295 295 295 295 296 296 297 298 297 297 297 296 295 295 296 297 300 297 296 295 296 297 298 297 298 297 297 297
295 295 294 295 294 293 296 295 293 292 293 293 293 294 294 293 293 294 295 295 295 295 294 295 295 295 296 297 297 298 297 296 295 294 294 295 297 298 297 296 295 296 296 296 296 298 297 297 297
295 295 294 293 292 294 292 295 292 292 292 293 293 294 293 293 293 294 295 294 295 294 294 294 294 295 295 297 297 298 297 296 295 294 294 294 296 298 297 296 296 296 296 296 297 296 298 297 297
Wind_Speed
13 4 7 0 4 4 5 3 6 12 6 4 16 12 14 12 6 4 5 20 21 21 24 30 29 28 28 28 28 27 26 24 23 22 23 17 8 7 8 8 8 7 7 6 6 6 6 5 5
10 7 2 2 4 3 3 3 9 14 9 17 16 11 11 8 11 6 7 19 23 24 26 27 27 28 29 29 27 26 25 25 24 23 22 20 20 18 11 8 8 8 7 7 8 9 9 8 7
11 6 3 3 4 5 3 9 10 18 24 10 7 13 6 9 13 2 8 13 19 21 25 22 22 23 25 25 25 25 25 24 24 23 22 20 18 17 14 15 12 6 6 7 8 9 9 10 11
4 5 4 5 9 8 8 15 16 18 15 16 11 12 6 10 2 2 9 15 19 22 23 21 22 24 23 23 23 23 24 24 23 22 21 20 19 17 16 13 11 7 6 5 4 3 5 8 10
1 2 4 5 8 6 15 15 20 22 7 14 4 6 6 3 6 5 7 13 19 20 23 23 23 23 23 23 22 24 22 22 22 21 21 20 18 16 15 14 14 11 9 10 7 2 3 4 5
4 2 4 4 13 8 10 11 22 17 20 11 10 7 4 3 2 5 7 11 17 20 20 22 22 23 24 23 23 22 21 21 21 20 19 19 18 16 15 14 13 13 13 11 9 7 8 14 13
2 3 3 6 7 15 10 5 9 17 17 19 9 8 2 2 6 5 11 19 21 22 23 22 25 25 25 25 23 22 23 24 22 21 21 21 20 17 15 14 15 17 14 12 11 10 9 8 9
3 3 3 8 5 9 12 24 17 15 16 4 7 6 4 10 21 21 23 26 26 26 26 24 24 23 26 26 23 24 27 26 25 26 25 25 23 24 21 17 21 17 14 13 12 12 11 10 10
2 5 5 4 4 5 9 10 15 11 17 18 8 6 11 23 25 26 27 27 26 27 27 27 28 30 31 29 27 28 30 29 30 30 28 25 25 29 26 21 21 19 16 13 13 13 13 12 9
6 5 7 5 6 11 14 11 9 8 13 11 11 15 18 21 23 19 19 22 24 26 26 27 28 27 26 29 29 30 30 30 30 33 33 33 32 26 26 26 24 18 18 15 14 12 11 10 9
5 5 7 12 17 13 11 22 6 7 9 5 5 5 14 18 17 15 15 17 21 23 26 28 28 28 27 30 27 31 33 32 32 31 31 35 36 33 28 28 24 22 19 19 19 17 16 14 13
7 10 7 3 4 6 6 7 10 10 6 6 7 10 13 11 14 18 17 19 24 24 26 27 27 29 30 31 30 34 32 29 33 34 36 30 32 33 34 32 27 26 23 24 22 18 15 16 16
14 7 10 15 18 16 17 12 10 6 7 11 13 14 9 12 16 19 22 25 25 27 28 29 30 29 28 28 31 28 27 28 30 32 32 34 38 33 32 32 30 27 26 24 20 15 15 15 15
7 11 16 11 12 12 19 7 4 6 8 9 9 8 10 13 17 22 25 26 28 30 32 34 30 31 32 31 30 31 31 29 27 26 33 36 35 36 34 32 29 29 16 15 13 14 13 14 15
15 9 8 11 8 7 19 10 5 4 9 9 8 7 9 13 19 23 28 28 34 34 35 33 36 32 34 35 34 34 31 31 32 34 29 34 33 35 32 34 34 31 29 28 27 19 17 15 13
3 5 3 6 9 9 6 3 4 6 8 7 8 9 8 14 18 28 29 29 33 33 35 37 33 37 35 37 36 36 34 32 32 29 33 29 32 31 35 31 31 30 27 20 20 20 19 20 18
6 2 4 0 4 5 3 5 3 6 7 6 8 9 9 9 19 27 30 32 33 35 37 38 37 35 35 35 35 34 33 33 33 31 29 33 28 31 36 33 35 31 29 32 27 22 20 16 13
5 5 4 3 3 9 10 7 4 5 6 7 7 7 9 9 10 29 31 30 36 35 35 39 37 33 34 34 32 30 29 32 31 31 32 33 35 33 34 33 33 29 27 30 28 28 24 21 20
7 1 2 4 7 5 7 8 5 4 6 6 7 11 10 9 20 27 33 33 33 38 38 33 38 36 36 32 28 31 30 23 27 31 35 34 33 34 33 34 35 36 29 31 30 26 23 23 21
5 4 5 7 5 7 8 7 4 1 5 5 11 9 9 15 19 30 35 36 37 39 28 43 34 38 36 34 30 30 31 31 32 32 31 35 32 32 35 34 35 35 33 31 28 28 26 23 23
3 5 1 5 4 7 11 3 3 3 6 10 7 7 11 20 19 26 35 36 37 32 41 38 39 39 36 35 33 32 30 30 29 28 30 29 31 32 31 32 34 32 29 28 25 22 20 22 26
5 1 10 7 2 3 5 1 3 6 8 8 9 15 17 19 19 29 32 37 40 37 41 39 39 37 36 35 32 31 29 28 29 31 30 31 32 32 30 30 33 34 30 28 28 27 25 21 21
8 20 13 3 6 5 3 5 6 7 11 14 13 15 19 19 20 22 35 35 35 41 40 38 38 38 38 36 34 32 30 31 32 31 31 31 30 30 30 29 31 30 31 29 25 26 26 27 25
15 7 7 5 4 3 6 4 5 6 8 13 15 19 19 21 23 30 37 35 41 43 40 40 38 38 37 36 35 33 33 33 32 32 31 29 28 27 27 27 27 27 30 29 30 30 28 24 25
9 8 5 5 5 3 1 8 1 5 7 7 16 20 20 21 17 24 32 36 39 41 41 39 40 40 41 39 37 37 35 34 32 32 31 29 27 26 26 26 25 25 27 27 25 25 25 29 32
5 5 4 3 3 6 7 4 4 2 6 14 16 17 19 21 20 23 32 36 36 38 39 39 40 39 42 41 41 38 36 33 33 31 31 30 30 30 27 25 25 23 21 21 23 22 22 21 25
6 5 4 1 3 2 2 5 4 16 14 17 19 21 22 17 22 24 34 36 36 38 39 39 40 41 42 42 39 39 34 35 34 34 32 30 34 31 27 23 22 20 25 16 17 17 17 20 19
5 2 5 4 4 5 5 2 4 11 18 20 23 23 23 22 23 25 33 37 37 38 40 40 42 42 42 41 39 39 37 37 36 33 33 34 37 32 20 16 14 13 12 17 22 14 15 16 16
6 5 5 3 3 2 4 2 5 6 15 19 21 21 18 22 21 22 32 35 36 38 40 39 42 43 43 40 41 39 39 38 36 35 34 34 31 22 3 5 7 9 10 13 13 14 15 16 19
4 3 4 4 6 1 3 5 6 16 15 17 20 21 18 20 19 28 30 34 35 36 39 40 42 42 43 39 41 39 39 39 38 38 37 35 27 15 8 4 2 5 6 8 10 13 14 17 16
Wind_Direction
338 335 322 77 47 57 21 15 156 43 71 53 59 74 99 49 29 77 325 3 6 11 13 21 24 26 28 28 26 24 22 19 17 16 20 19 353 321 321 305 299 284 270 263 266 252 253 250 243
344 348 107 77 69 61 52 356 61 60 110 112 89 104 49 73 31 61 32 8 27 25 22 22 20 21 24 23 22 21 19 18 18 17 12 13 16 25 10 325 297 282 275 266 259 254 251 248 254
313 292 75 99 84 63 64 0 52 65 33 23 98 49 48 340 46 59 18 30 32 30 30 22 19 18 20 20 19 18 15 14 12 12 10 10 9 8 5 16 19 315 301 285 271 261 256 256 254
324 23 16 79 90 35 63 38 36 30 35 35 115 76 86 42 99 6 43 40 31 30 29 20 18 17 14 12 12 11 9 8 6 6 5 3 2 1 6 1 357 356 24 332 297 288 270 265 260
199 75 64 83 70 80 63 62 52 52 53 39 76 66 94 96 77 56 48 45 33 32 24 23 17 14 12 8 4 4 359 356 356 356 356 356 353 349 354 354 356 351 318 307 311 300 248 266 269
4 93 72 103 63 61 73 55 60 58 39 43 76 102 75 125 30 36 34 38 32 22 14 14 10 3 1 355 354 351 348 345 344 342 342 340 344 338 340 340 339 345 341 340 336 328 283 264 273
110 70 121 102 95 49 12 55 49 52 43 34 70 89 106 10 347 350 30 27 19 12 9 4 355 348 341 337 339 336 330 332 329 326 323 323 326 326 328 322 315 320 319 320 321 321 315 304 299
117 85 67 23 61 51 77 72 64 56 39 110 32 52 27 28 33 27 23 17 10 3 2 359 356 354 349 344 340 331 332 331 329 321 317 315 312 311 311 310 309 308 307 306 309 307 310 306 297
53 51 36 43 68 106 10 94 65 69 65 54 57 78 37 28 22 21 17 7 356 352 353 353 351 345 341 338 333 331 327 326 322 320 324 326 310 309 300 301 304 296 297 297 301 302 303 307 298
60 67 33 29 101 100 62 66 65 72 61 52 48 35 32 31 21 19 9 356 352 347 345 343 341 339 337 334 331 331 327 325 321 320 319 316 314 325 297 294 298 296 291 286 296 296 297 286 288
35 115 96 84 112 110 102 63 44 122 58 80 69 26 30 29 14 359 351 350 345 342 341 338 334 331 328 328 323 325 323 320 318 317 315 314 313 309 311 304 293 292 295 291 293 287 284 282 291
100 41 86 20 67 91 86 83 80 87 127 124 86 55 31 17 359 346 349 349 344 337 333 328 328 326 323 321 319 316 314 312 314 312 310 314 314 310 307 301 303 282 285 286 282 279 284 282 285
94 107 86 103 91 86 94 87 96 84 86 62 60 45 19 357 349 3 359 349 344 341 339 336 332 328 323 318 313 316 309 304 306 305 303 306 304 303 303 304 301 297 274 276 270 269 274 275 279
116 123 132 125 111 112 95 75 80 39 66 42 44 17 352 351 2 1 353 345 348 341 338 336 339 330 323 322 321 316 310 306 302 301 302 300 298 296 298 297 295 296 278 281 294 292 269 278 290
128 116 103 137 143 130 109 45 60 55 56 36 14 345 354 358 1 357 350 348 345 341 340 339 329 325 327 323 319 313 310 307 302 296 300 299 292 285 290 295 293 293 288 271 267 271 280 281 275
124 106 125 163 179 177 60 159 56 57 63 22 355 353 348 348 354 355 344 345 341 343 335 333 329 328 321 322 318 314 311 306 303 295 297 285 292 292 284 284 292 298 294 263 272 268 267 264 270
12 312 84 236 27 124 112 152 108 66 58 7 3 359 343 332 348 344 346 345 344 335 333 330 328 323 326 317 314 309 307 306 301 298 292 289 276 283 290 293 291 292 296 289 259 254 254 255 262
302 320 63 141 79 62 93 117 127 83 56 23 1 330 343 338 333 342 344 339 336 339 333 330 325 325 327 323 312 306 307 301 297 295 292 286 283 279 281 278 283 285 287 291 261 255 251 253 258
248 192 53 342 170 108 119 125 132 112 45 26 5 6 333 320 334 342 339 338 341 338 336 348 337 329 336 329 327 318 310 315 309 303 297 288 282 278 273 275 271 277 277 280 282 256 246 247 251
36 67 1 300 338 99 132 124 140 186 58 47 19 331 323 344 346 344 342 344 343 339 352 340 339 337 332 325 324 317 311 307 302 299 293 288 290 283 273 265 267 268 263 267 268 266 253 249 253
322 137 271 243 321 68 116 78 99 341 21 24 347 313 351 349 346 343 343 344 345 349 344 339 336 333 331 328 320 314 309 305 303 302 298 291 288 286 280 271 266 269 256 264 270 271 276 251 248
305 194 317 267 167 216 167 63 62 351 10 357 345 359 352 347 343 344 347 343 346 348 341 338 336 336 334 331 325 320 313 308 308 304 297 290 287 282 279 274 261 259 264 264 264 265 261 265 246
269 312 294 228 164 95 311 85 298 11 360 1 346 352 352 346 346 345 347 344 346 344 340 339 339 338 334 329 325 320 314 309 306 300 294 290 288 278 276 270 266 261 254 252 252 247 249 251 259
323 336 37 44 73 61 329 115 324 7 340 350 351 355 349 346 344 348 348 351 347 345 346 344 341 337 336 333 329 325 318 313 309 304 297 291 284 282 273 269 262 256 250 249 249 252 249 247 252
2 28 2 15 9 236 104 61 87 347 351 343 355 348 347 347 352 346 351 352 346 343 342 343 341 337 338 336 331 327 320 315 309 304 298 292 285 277 273 266 264 252 250 247 245 243 243 245 248
358 63 93 297 327 288 11 124 143 359 353 3 352 346 345 348 350 349 353 350 345 341 342 340 340 337 339 338 334 330 326 324 320 316 315 307 290 275 269 267 258 262 257 252 243 247 239 244 258
336 29 184 115 295 2 245 338 35 355 358 355 352 351 348 354 350 351 351 350 346 345 343 342 342 341 342 342 345 342 339 336 333 329 324 320 313 283 259 262 258 255 257 263 238 236 236 235 245
80 309 23 16 24 317 316 68 317 343 351 354 352 347 346 349 350 351 351 349 346 347 345 344 349 346 343 340 345 345 343 343 341 337 334 331 332 329 237 262 261 250 253 248 240 230 226 237 239
350 14 20 111 81 177 310 293 357 352 3 351 344 345 348 345 347 349 348 348 347 350 347 347 349 345 344 342 346 346 346 348 347 345 341 340 343 5 332 284 259 251 253 256 251 240 227 233 233
63 66 88 107 300 238 162 273 74 22 357 346 344 341 344 344 344 348 349 348 349 348 349 351 348 344 342 344 348 350 352 353 351 348 345 344 348 7 8 352 275 256 258 250 248 237 239 233 232